COSMOS 2251 DEB, 34728

Orbit data source: Space-Track

COSMOS 2251 DEB, 34728 is space debris in LEO originally from a launch on Wed, 16 Jun 1993 UTC launched from the Plesetsk Missile And Space Complex (PKMTR). The debris from Iridium 33, an American commercial communications satellite, has been tracked extensively since its accidental collision with the defunct Russian satellite Cosmos 2251 in 2009. This event, occurring at high speed in low Earth orbit (LEO), generated thousands of pieces of space debris, significantly increasing the risk of further collisions. The Iridium 33 debris cloud has impacted space traffic management and orbital debris mitigation strategies, making it a subject of ongoing study in space situational awareness.

Loading next visibility...
Identifier
34728, 1993-036YW
Orbit
LEO
Country
Flag of CISCIS
Related business
Manufacturer
Unknown
Mission
Spacecraft
Bus & Motor
Unknown
Mass
Unknown
Launch date (UTC)
1993-06-16 (33 years ago)
Launch vehicle
Unknown
Launch site
Plesetsk Missile And Space Complex (PKMTR)
Object type
Payload
Rocket body
Debris
Shape & HBR
Unknown shape, 0.1 m
Radar Cross Section
Small (<0.1 m²)

Expand to show TLE details & history
Last TLE update: 2 days ago

TLE from 2 days ago
0 COSMOS 2251 DEB
1 34728U 93036YW  26121.59709552  .00004229  00000-0  66768-3 0  9992
2 34728  74.0175 339.6288 0041940 104.2708 256.3128 14.72101916908577
Epoch: 2026-05-01T14:19Z
TLE epoch observation values (Epoch: 2026-05-01T14:19:49.052Z)
Latitude
0.00003°
Longitude
-94.85264°
Altitude
664.117 km
Speed
7.522 km/s
True Right ascension
22h 38m 30s
True Declination
0° 00' 00"
Sunlit
Object was in daylight at epoch
Visualization orbit readout
Latitude
Unknown
Longitude
Unknown
Altitude
Unknown
Speed
Unknown
Apparent Right ascension
Unknown
Apparent Declination
Unknown
Sunlit
N/A
Visualization observer readout
Local Sidereal Time
17:11:06
Azimuth
Unknown
Elevation
Unknown
Doppler factor
Unknown
Orbital elements
Apogee altitude
681.436 km
Perigee altitude
622.468 km
Semi-major axis
7,030.089 km
Eccentricity
0.00419
Inclination
74.0175°
RAAN
339.6288°
Arg. of periapsis
104.2708°
True anomaly
255.84643°
Mean anomaly
256.3128°
Eccentric anomaly
256.07956°
Mean motion
3.68215 °/min
Orbital period
97.77 mins
BSTAR
0.00066768
Loading maneuver chart data...
Computing Atmospheric mass density...
Loading historical data...
Loading historical data...
Loading historical data...
Loading historical data...
Loading historical data...
Loading historical data...
Loading historical data...

Documentation

Showing up to 5 results
|